Year,Month,Day,Hour,Minute,Value (Times are PST for temperature in C)
2009,02,27,10,02,4.20
2009,02,27,10,03,4.20
2009,02,27,10,04,4.30
2009,02,27,10,05,4.40
2009,02,27,10,06,4.40
2009,02,27,10,07,4.40
2009,02,27,10,08,4.40
2009,02,27,10,09,4.40
2009,02,27,10,10,4.40
2009,02,27,10,11,4.40
2009,02,27,10,12,4.30
2009,02,27,10,13,4.30
2009,02,27,10,14,4.30
2009,02,27,10,15,4.30
2009,02,27,10,16,4.30
2009,02,27,10,17,4.30
2009,02,27,10,18,4.30
2009,02,27,10,19,4.40
2009,02,27,10,20,4.40
2009,02,27,10,21,4.50
2009,02,27,10,22,4.50
2009,02,27,10,23,4.40
2009,02,27,10,24,4.30
2009,02,27,10,25,4.30
2009,02,27,10,26,4.30
2009,02,27,10,27,4.30
2009,02,27,10,28,4.30
2009,02,27,10,29,4.30
2009,02,27,10,30,4.30
2009,02,27,10,31,4.30
2009,02,27,10,32,4.30
2009,02,27,10,33,4.30
2009,02,27,10,34,4.30
2009,02,27,10,35,4.30
2009,02,27,10,36,4.30
2009,02,27,10,37,4.30
2009,02,27,10,38,4.30
2009,02,27,10,39,4.30
2009,02,27,10,40,4.30
2009,02,27,10,41,4.30
2009,02,27,10,42,4.30
2009,02,27,10,43,4.30
2009,02,27,10,44,4.30
2009,02,27,10,45,4.30
2009,02,27,10,46,4.30
2009,02,27,10,47,4.30
2009,02,27,10,48,4.20
2009,02,27,10,49,4.20
2009,02,27,10,50,4.20
2009,02,27,10,51,4.20
2009,02,27,10,52,4.20
2009,02,27,10,53,4.20
2009,02,27,10,54,4.20
2009,02,27,10,55,4.20
2009,02,27,10,56,4.30
2009,02,27,10,57,4.30
2009,02,27,10,58,4.40
2009,02,27,10,59,4.40
2009,02,27,11,00,4.40
2009,02,27,11,01,4.40
2009,02,27,11,02,4.40
2009,02,27,11,03,4.40
2009,02,27,11,04,4.40
2009,02,27,11,05,4.50
2009,02,27,11,06,4.60
2009,02,27,11,07,4.60
2009,02,27,11,08,4.50
2009,02,27,11,09,4.50
2009,02,27,11,10,4.50
2009,02,27,11,11,4.50
2009,02,27,11,12,4.60
2009,02,27,11,13,4.60
2009,02,27,11,14,4.60
2009,02,27,11,15,4.70
2009,02,27,11,16,4.70
2009,02,27,11,17,4.70
2009,02,27,11,18,4.80
2009,02,27,11,19,4.80
2009,02,27,11,20,4.80
2009,02,27,11,21,4.80
2009,02,27,11,22,4.80
2009,02,27,11,23,4.90
2009,02,27,11,24,4.90
2009,02,27,11,25,4.90
2009,02,27,11,26,4.90
2009,02,27,11,27,4.90
2009,02,27,11,28,4.90
2009,02,27,11,29,4.90
2009,02,27,11,30,4.90
2009,02,27,11,31,4.80
2009,02,27,11,32,4.80
2009,02,27,11,33,4.80
2009,02,27,11,34,4.80
2009,02,27,11,35,4.80
2009,02,27,11,36,4.90
2009,02,27,11,37,5.00
2009,02,27,11,38,5.10
2009,02,27,11,39,5.10
2009,02,27,11,40,5.00
2009,02,27,11,41,4.90
2009,02,27,11,42,4.80
2009,02,27,11,43,4.80
2009,02,27,11,44,4.80
2009,02,27,11,45,4.80
2009,02,27,11,46,4.80
2009,02,27,11,47,4.90
2009,02,27,11,48,4.90
2009,02,27,11,49,5.00
2009,02,27,11,50,5.10
2009,02,27,11,51,5.20
2009,02,27,11,52,5.20
2009,02,27,11,53,5.10
2009,02,27,11,54,5.10
2009,02,27,11,55,5.10
2009,02,27,11,56,5.10
2009,02,27,11,57,5.20
2009,02,27,11,58,5.30
2009,02,27,11,59,5.40
2009,02,27,12,00,5.50
2009,02,27,12,01,5.50
2009,02,27,12,02,5.60
2009,02,27,12,03,5.60
2009,02,27,12,04,5.60
2009,02,27,12,05,5.60
2009,02,27,12,06,5.40
2009,02,27,12,07,5.40
2009,02,27,12,08,5.30
2009,02,27,12,09,5.20
2009,02,27,12,10,5.20
2009,02,27,12,11,5.30
2009,02,27,12,12,5.40
2009,02,27,12,13,5.30
2009,02,27,12,14,5.30
2009,02,27,12,15,5.30
2009,02,27,12,16,5.20
2009,02,27,12,17,5.30
2009,02,27,12,18,5.20
2009,02,27,12,19,5.20
2009,02,27,12,20,5.30
2009,02,27,12,21,5.40
2009,02,27,12,22,5.50
2009,02,27,12,23,5.40
2009,02,27,12,24,5.40
2009,02,27,12,25,5.40
2009,02,27,12,26,5.40
2009,02,27,12,27,5.40
2009,02,27,12,28,5.50
2009,02,27,12,29,5.50
2009,02,27,12,30,5.60
2009,02,27,12,31,5.70
2009,02,27,12,32,5.70
2009,02,27,12,33,5.60
2009,02,27,12,34,5.60
2009,02,27,12,35,5.60
2009,02,27,12,36,5.70
2009,02,27,12,37,5.70
2009,02,27,12,38,5.70
2009,02,27,12,39,5.60
2009,02,27,12,40,5.50
2009,02,27,12,41,5.60
2009,02,27,12,42,5.60
2009,02,27,12,43,5.50
2009,02,27,12,44,5.40
2009,02,27,12,45,5.50
2009,02,27,12,46,5.40
2009,02,27,12,47,5.40
2009,02,27,12,48,5.30
2009,02,27,12,49,5.40
2009,02,27,12,50,5.40
2009,02,27,12,51,5.50
2009,02,27,12,52,5.60
2009,02,27,12,53,5.70
2009,02,27,12,54,5.70
2009,02,27,12,55,5.70
2009,02,27,12,56,5.70
2009,02,27,12,57,5.80
2009,02,27,12,58,5.90
2009,02,27,12,59,6.00
2009,02,27,13,00,6.00
2009,02,27,13,01,6.10
2009,02,27,13,02,6.20
2009,02,27,13,03,6.30
2009,02,27,13,04,6.20
2009,02,27,13,05,6.00
2009,02,27,13,06,5.90
2009,02,27,13,07,5.90
2009,02,27,13,08,5.90
2009,02,27,13,09,5.90
2009,02,27,13,10,5.90
2009,02,27,13,11,5.80
2009,02,27,13,12,5.80
2009,02,27,13,13,6.00
2009,02,27,13,14,6.10
2009,02,27,13,15,5.90
2009,02,27,13,16,5.80
2009,02,27,13,17,5.80
2009,02,27,13,18,5.70
2009,02,27,13,19,5.70
2009,02,27,13,20,5.80
2009,02,27,13,21,5.80
2009,02,27,13,22,5.80
2009,02,27,13,23,5.80
2009,02,27,13,24,5.80
2009,02,27,13,25,5.80
2009,02,27,13,26,5.90
2009,02,27,13,27,5.90
2009,02,27,13,28,5.90
2009,02,27,13,29,5.90
2009,02,27,13,30,5.90
2009,02,27,13,31,6.00
2009,02,27,13,32,6.00
2009,02,27,13,33,6.10
2009,02,27,13,34,6.20
2009,02,27,13,35,6.30
2009,02,27,13,36,6.30
2009,02,27,13,37,6.30
2009,02,27,13,38,6.30
2009,02,27,13,39,6.20
2009,02,27,13,40,6.20
2009,02,27,13,41,6.20
2009,02,27,13,42,6.30
2009,02,27,13,43,6.40
2009,02,27,13,44,6.50
2009,02,27,13,45,6.40
2009,02,27,13,46,6.40
2009,02,27,13,47,6.40
2009,02,27,13,48,6.40
2009,02,27,13,49,6.40
2009,02,27,13,50,6.30
2009,02,27,13,51,6.20
2009,02,27,13,52,6.10
2009,02,27,13,53,6.10
2009,02,27,13,54,6.00
2009,02,27,13,55,6.00
2009,02,27,13,56,5.90
2009,02,27,13,57,6.00
2009,02,27,13,58,6.00
2009,02,27,13,59,6.10
2009,02,27,14,00,6.10
2009,02,27,14,01,6.10
2009,02,27,14,02,6.20
2009,02,27,14,03,6.10
2009,02,27,14,04,6.10
2009,02,27,14,05,6.10
2009,02,27,14,06,6.20
2009,02,27,14,07,6.20
2009,02,27,14,08,6.20
2009,02,27,14,09,6.20
2009,02,27,14,10,6.20
2009,02,27,14,11,6.20
2009,02,27,14,12,6.20
2009,02,27,14,13,6.20
2009,02,27,14,14,6.20
2009,02,27,14,15,6.10
2009,02,27,14,16,6.10
2009,02,27,14,17,6.00
2009,02,27,14,18,6.00
2009,02,27,14,19,6.10
2009,02,27,14,20,6.20
2009,02,27,14,21,6.20
2009,02,27,14,22,6.20
2009,02,27,14,23,6.10
2009,02,27,14,24,6.10
2009,02,27,14,25,6.10
2009,02,27,14,26,6.00
2009,02,27,14,27,6.00
2009,02,27,14,28,6.10
2009,02,27,14,29,6.20
2009,02,27,14,30,6.20
2009,02,27,14,31,6.20
2009,02,27,14,32,6.20
2009,02,27,14,33,6.20
2009,02,27,14,34,6.20
2009,02,27,14,35,6.10
2009,02,27,14,36,6.00
2009,02,27,14,37,6.00
2009,02,27,14,38,5.90
2009,02,27,14,39,6.00
2009,02,27,14,40,6.10
2009,02,27,14,41,6.10
2009,02,27,14,42,6.10
2009,02,27,14,43,6.20
2009,02,27,14,44,6.20
2009,02,27,14,45,6.20
2009,02,27,14,46,6.20
2009,02,27,14,47,6.30
2009,02,27,14,48,6.30
2009,02,27,14,49,6.30
2009,02,27,14,50,6.20
2009,02,27,14,51,6.10
2009,02,27,14,52,6.10
2009,02,27,14,53,6.10
2009,02,27,14,54,6.10
2009,02,27,14,55,6.20
2009,02,27,14,56,6.20
2009,02,27,14,57,6.20
2009,02,27,14,58,6.20
2009,02,27,14,59,6.20
2009,02,27,15,00,6.10
2009,02,27,15,01,6.00
2009,02,27,15,02,6.00
2009,02,27,15,03,5.90
2009,02,27,15,04,5.80
2009,02,27,15,05,5.80
2009,02,27,15,06,5.80
2009,02,27,15,07,5.80
2009,02,27,15,08,5.80
2009,02,27,15,09,5.80
2009,02,27,15,10,5.80
2009,02,27,15,11,5.80
2009,02,27,15,12,5.90
2009,02,27,15,13,5.80
2009,02,27,15,14,5.80
2009,02,27,15,15,5.80
2009,02,27,15,16,5.80
2009,02,27,15,17,5.80
2009,02,27,15,18,5.80
2009,02,27,15,19,5.90
2009,02,27,15,20,6.00
2009,02,27,15,21,6.10
2009,02,27,15,22,6.20
2009,02,27,15,23,6.20
2009,02,27,15,24,6.30
2009,02,27,15,25,6.30
2009,02,27,15,26,6.30
2009,02,27,15,27,6.30
2009,02,27,15,28,6.30
2009,02,27,15,29,6.30
2009,02,27,15,30,6.30
2009,02,27,15,31,6.30
2009,02,27,15,32,6.20
2009,02,27,15,33,6.10
2009,02,27,15,34,6.10
2009,02,27,15,35,6.10
2009,02,27,15,36,6.10
2009,02,27,15,37,6.10
2009,02,27,15,38,6.10
2009,02,27,15,39,6.10
2009,02,27,15,40,6.10
2009,02,27,15,41,6.00
2009,02,27,15,42,5.90
2009,02,27,15,43,6.00
2009,02,27,15,44,6.00
2009,02,27,15,45,6.00
2009,02,27,15,46,5.90
2009,02,27,15,47,5.90
2009,02,27,15,48,5.90
2009,02,27,15,49,5.90
2009,02,27,15,50,5.80
2009,02,27,15,51,5.80
2009,02,27,15,52,5.70
2009,02,27,15,53,5.60
2009,02,27,15,54,5.60
2009,02,27,15,55,5.60
2009,02,27,15,56,5.60
2009,02,27,15,57,5.70
2009,02,27,15,58,5.70
2009,02,27,15,59,5.70
2009,02,27,16,00,5.60
2009,02,27,16,01,5.60
2009,02,27,16,02,5.60
2009,02,27,16,03,5.70
2009,02,27,16,04,5.70
2009,02,27,16,05,5.80
2009,02,27,16,06,5.80
2009,02,27,16,07,5.90
2009,02,27,16,08,5.90
2009,02,27,16,09,6.00
2009,02,27,16,10,6.00
2009,02,27,16,11,5.90
2009,02,27,16,12,5.90
2009,02,27,16,13,5.90
2009,02,27,16,14,5.90
2009,02,27,16,15,5.90
2009,02,27,16,16,5.90
2009,02,27,16,17,5.90
2009,02,27,16,18,5.90
2009,02,27,16,19,5.90
2009,02,27,16,20,5.90
2009,02,27,16,21,5.90
2009,02,27,16,22,5.90
2009,02,27,16,23,5.90
2009,02,27,16,24,5.90
2009,02,27,16,25,5.80
2009,02,27,16,26,5.80
2009,02,27,16,27,5.80
2009,02,27,16,28,5.80
2009,02,27,16,29,5.80
2009,02,27,16,30,5.90
2009,02,27,16,31,5.80
2009,02,27,16,32,5.80
2009,02,27,16,33,5.80
2009,02,27,16,34,5.80
2009,02,27,16,35,5.70
2009,02,27,16,36,5.80
2009,02,27,16,37,5.80
2009,02,27,16,38,5.80
2009,02,27,16,39,5.90
2009,02,27,16,40,5.90
2009,02,27,16,41,5.90
2009,02,27,16,42,5.80
2009,02,27,16,43,5.80
2009,02,27,16,44,5.80
2009,02,27,16,45,5.80
2009,02,27,16,46,5.80
2009,02,27,16,47,5.80
2009,02,27,16,48,5.70
2009,02,27,16,49,5.70
2009,02,27,16,50,5.60
2009,02,27,16,51,5.50
2009,02,27,16,52,5.40
2009,02,27,16,53,5.30
2009,02,27,16,54,5.30
2009,02,27,16,55,5.30
2009,02,27,16,56,5.30
2009,02,27,16,57,5.30
2009,02,27,16,58,5.30
2009,02,27,16,59,5.30
2009,02,27,17,00,5.30
2009,02,27,17,01,5.30
2009,02,27,17,02,5.30
2009,02,27,17,03,5.30
2009,02,27,17,04,5.30
2009,02,27,17,05,5.30
2009,02,27,17,06,5.30
2009,02,27,17,07,5.20
2009,02,27,17,08,5.10
2009,02,27,17,09,5.10
2009,02,27,17,10,5.00
2009,02,27,17,11,5.00
2009,02,27,17,12,4.90
2009,02,27,17,13,4.90
2009,02,27,17,14,4.80
2009,02,27,17,15,4.80
2009,02,27,17,16,4.80
2009,02,27,17,17,4.80
2009,02,27,17,18,4.80
2009,02,27,17,19,4.80
2009,02,27,17,20,4.80
2009,02,27,17,21,4.80
2009,02,27,17,22,4.80
2009,02,27,17,23,4.80
2009,02,27,17,24,4.80
2009,02,27,17,25,4.80
2009,02,27,17,26,4.70
2009,02,27,17,27,4.70
2009,02,27,17,28,4.70
2009,02,27,17,29,4.70
2009,02,27,17,30,4.70
2009,02,27,17,31,4.70
2009,02,27,17,32,4.80
2009,02,27,17,33,4.80
2009,02,27,17,34,4.80
2009,02,27,17,35,4.80
2009,02,27,17,36,4.80
2009,02,27,17,37,4.80
2009,02,27,17,38,4.80
2009,02,27,17,39,4.80
2009,02,27,17,40,4.80
2009,02,27,17,41,4.80
2009,02,27,17,42,4.80
2009,02,27,17,43,4.80
2009,02,27,17,44,4.80
2009,02,27,17,45,4.80
2009,02,27,17,46,4.80
2009,02,27,17,47,4.80
2009,02,27,17,48,4.80
2009,02,27,17,49,4.80
2009,02,27,17,50,4.80
2009,02,27,17,51,4.80
2009,02,27,17,52,4.80
2009,02,27,17,53,4.80
2009,02,27,17,54,4.80
2009,02,27,17,55,4.80
2009,02,27,17,56,4.80
2009,02,27,17,57,4.80
2009,02,27,17,58,4.80
2009,02,27,17,59,4.80
2009,02,27,18,00,4.80
2009,02,27,18,01,4.80
2009,02,27,18,02,4.80
2009,02,27,18,03,4.80
2009,02,27,18,04,4.80
2009,02,27,18,05,4.70
2009,02,27,18,06,4.70
2009,02,27,18,07,4.70
2009,02,27,18,08,4.70
2009,02,27,18,09,4.70
2009,02,27,18,10,4.70
2009,02,27,18,11,4.70
2009,02,27,18,12,4.70
2009,02,27,18,13,4.70
2009,02,27,18,14,4.70
2009,02,27,18,15,4.70
2009,02,27,18,16,4.70
2009,02,27,18,17,4.70
2009,02,27,18,18,4.70
2009,02,27,18,19,4.70
2009,02,27,18,20,4.70
2009,02,27,18,21,4.70
2009,02,27,18,22,4.70
2009,02,27,18,23,4.70
2009,02,27,18,24,4.70
2009,02,27,18,25,4.70
2009,02,27,18,26,4.70
2009,02,27,18,27,4.70
2009,02,27,18,28,4.70
2009,02,27,18,29,4.70
2009,02,27,18,30,4.60
2009,02,27,18,31,4.60
2009,02,27,18,32,4.60
2009,02,27,18,33,4.60
2009,02,27,18,34,4.60
2009,02,27,18,35,4.60
2009,02,27,18,36,4.60
2009,02,27,18,37,4.60
2009,02,27,18,38,4.60
2009,02,27,18,39,4.60
2009,02,27,18,40,4.60
2009,02,27,18,41,4.60
2009,02,27,18,42,4.60
2009,02,27,18,43,4.60
2009,02,27,18,44,4.60
2009,02,27,18,45,4.60
2009,02,27,18,46,4.60
2009,02,27,18,47,4.60
2009,02,27,18,48,4.60
2009,02,27,18,49,4.60
2009,02,27,18,50,4.60
2009,02,27,18,51,4.60
2009,02,27,18,52,4.60
2009,02,27,18,53,4.60
2009,02,27,18,54,4.60
2009,02,27,18,55,4.60
2009,02,27,18,56,4.60
2009,02,27,18,57,4.60
2009,02,27,18,58,4.60
2009,02,27,18,59,4.60
2009,02,27,19,00,4.60
2009,02,27,19,01,4.60
2009,02,27,19,02,4.60
2009,02,27,19,03,4.50
2009,02,27,19,04,4.50
2009,02,27,19,05,4.50
2009,02,27,19,06,4.50
2009,02,27,19,07,4.50
2009,02,27,19,08,4.50
2009,02,27,19,09,4.50
2009,02,27,19,10,4.50
2009,02,27,19,11,4.50
2009,02,27,19,12,4.50
2009,02,27,19,13,4.50
2009,02,27,19,14,4.50
2009,02,27,19,15,4.50
2009,02,27,19,16,4.50
2009,02,27,19,17,4.50
2009,02,27,19,18,4.50
2009,02,27,19,19,4.50
2009,02,27,19,20,4.50
2009,02,27,19,21,4.40
2009,02,27,19,22,4.40
2009,02,27,19,23,4.40
2009,02,27,19,24,4.40
2009,02,27,19,25,4.40
2009,02,27,19,26,4.30
2009,02,27,19,27,4.30
2009,02,27,19,28,4.30
2009,02,27,19,29,4.30
2009,02,27,19,30,4.30
2009,02,27,19,31,4.30
2009,02,27,19,32,4.30
2009,02,27,19,33,4.30
2009,02,27,19,34,4.30
2009,02,27,19,35,4.30
2009,02,27,19,36,4.30
2009,02,27,19,37,4.30
2009,02,27,19,38,4.30
2009,02,27,19,39,4.30
2009,02,27,19,40,4.30
2009,02,27,19,41,4.30
2009,02,27,19,42,4.30
2009,02,27,19,43,4.30
2009,02,27,19,44,4.30
2009,02,27,19,45,4.30
2009,02,27,19,46,4.30
2009,02,27,19,47,4.30
2009,02,27,19,48,4.30
2009,02,27,19,49,4.30
2009,02,27,19,50,4.30
2009,02,27,19,51,4.30
2009,02,27,19,52,4.30
2009,02,27,19,53,4.20
2009,02,27,19,54,4.20
2009,02,27,19,55,4.20
2009,02,27,19,56,4.20
2009,02,27,19,57,4.20
2009,02,27,19,58,4.20
2009,02,27,19,59,4.20
2009,02,27,20,00,4.20
2009,02,27,20,01,4.20
2009,02,27,20,02,4.20
2009,02,27,20,03,4.20
2009,02,27,20,04,4.20
2009,02,27,20,05,4.20
2009,02,27,20,06,4.20
2009,02,27,20,07,4.20
2009,02,27,20,08,4.20
2009,02,27,20,09,4.20
2009,02,27,20,10,4.20
2009,02,27,20,11,4.20
2009,02,27,20,12,4.20
2009,02,27,20,13,4.20
2009,02,27,20,14,4.20
2009,02,27,20,15,4.10
2009,02,27,20,16,4.10
2009,02,27,20,17,4.10
2009,02,27,20,18,4.10
2009,02,27,20,19,4.10
2009,02,27,20,20,4.10
2009,02,27,20,21,4.10
2009,02,27,20,22,4.10
2009,02,27,20,23,4.10
2009,02,27,20,24,4.10
2009,02,27,20,25,4.10
2009,02,27,20,26,4.10
2009,02,27,20,27,4.10
2009,02,27,20,28,4.10
2009,02,27,20,29,4.10
2009,02,27,20,30,4.10
2009,02,27,20,31,4.10
2009,02,27,20,32,4.10
2009,02,27,20,33,4.10
2009,02,27,20,34,4.10
2009,02,27,20,35,4.10
2009,02,27,20,36,4.10
2009,02,27,20,37,4.00
2009,02,27,20,38,4.00
2009,02,27,20,39,4.00
2009,02,27,20,40,4.00
2009,02,27,20,41,4.00
2009,02,27,20,42,4.00
2009,02,27,20,43,4.00
2009,02,27,20,44,3.90
2009,02,27,20,45,3.90
2009,02,27,20,46,3.90
2009,02,27,20,47,3.90
2009,02,27,20,48,3.90
2009,02,27,20,49,3.90
2009,02,27,20,50,3.90
2009,02,27,20,51,3.90
2009,02,27,20,52,3.90
2009,02,27,20,53,3.90
2009,02,27,20,54,3.80
2009,02,27,20,55,3.80
2009,02,27,20,56,3.80
2009,02,27,20,57,3.80
2009,02,27,20,58,3.80
2009,02,27,20,59,3.80
2009,02,27,21,00,3.80
2009,02,27,21,01,3.80
2009,02,27,21,02,3.80
2009,02,27,21,03,3.80
2009,02,27,21,04,3.80
2009,02,27,21,05,3.80
2009,02,27,21,06,3.80
2009,02,27,21,07,3.80
2009,02,27,21,08,3.80
2009,02,27,21,09,3.80
2009,02,27,21,10,3.80
2009,02,27,21,11,3.80
2009,02,27,21,12,3.80
2009,02,27,21,13,3.80
2009,02,27,21,14,3.80
2009,02,27,21,15,3.80
2009,02,27,21,16,3.80
2009,02,27,21,17,3.70
2009,02,27,21,18,3.70
2009,02,27,21,19,3.70
2009,02,27,21,20,3.70
2009,02,27,21,21,3.70
2009,02,27,21,22,3.70
2009,02,27,21,23,3.70
2009,02,27,21,24,3.70
2009,02,27,21,25,3.70
2009,02,27,21,26,3.70
2009,02,27,21,27,3.70
2009,02,27,21,28,3.70
2009,02,27,21,29,3.70
2009,02,27,21,30,3.70
2009,02,27,21,31,3.70
2009,02,27,21,32,3.70
2009,02,27,21,33,3.70
2009,02,27,21,34,3.70
2009,02,27,21,35,3.70
2009,02,27,21,36,3.70
2009,02,27,21,37,3.70
2009,02,27,21,38,3.70
2009,02,27,21,39,3.70
2009,02,27,21,40,3.70
2009,02,27,21,41,3.70
2009,02,27,21,42,3.70
2009,02,27,21,43,3.70
2009,02,27,21,44,3.70
2009,02,27,21,45,3.70
2009,02,27,21,46,3.70
2009,02,27,21,47,3.70
2009,02,27,21,48,3.70
2009,02,27,21,49,3.70
2009,02,27,21,50,3.70
2009,02,27,21,51,3.70
2009,02,27,21,52,3.70
2009,02,27,21,53,3.70
2009,02,27,21,54,3.60
2009,02,27,21,55,3.60
2009,02,27,21,56,3.60
2009,02,27,21,57,3.60
2009,02,27,21,58,3.60
2009,02,27,21,59,3.60
2009,02,27,22,00,3.60
2009,02,27,22,01,3.60
2009,02,27,22,02,3.60
2009,02,27,22,03,3.60
2009,02,27,22,04,3.60
2009,02,27,22,05,3.60
2009,02,27,22,06,3.60
2009,02,27,22,07,3.50
2009,02,27,22,08,3.50
2009,02,27,22,09,3.50
2009,02,27,22,10,3.50
2009,02,27,22,11,3.50
2009,02,27,22,12,3.50
2009,02,27,22,13,3.50
2009,02,27,22,14,3.50
2009,02,27,22,15,3.50
2009,02,27,22,16,3.50
2009,02,27,22,17,3.50
2009,02,27,22,18,3.50
2009,02,27,22,19,3.50
2009,02,27,22,20,3.50
2009,02,27,22,21,3.50
2009,02,27,22,22,3.50
2009,02,27,22,23,3.40
2009,02,27,22,24,3.40
2009,02,27,22,25,3.40
2009,02,27,22,26,3.40
2009,02,27,22,27,3.40
2009,02,27,22,28,3.40
2009,02,27,22,29,3.40
2009,02,27,22,30,3.40
2009,02,27,22,31,3.40
2009,02,27,22,32,3.40
2009,02,27,22,33,3.40
2009,02,27,22,34,3.40
2009,02,27,22,35,3.40
2009,02,27,22,36,3.40
2009,02,27,22,37,3.40
2009,02,27,22,38,3.40
2009,02,27,22,39,3.40
2009,02,27,22,40,3.40
2009,02,27,22,41,3.40
2009,02,27,22,42,3.40
2009,02,27,22,43,3.40
2009,02,27,22,44,3.40
2009,02,27,22,45,3.40
2009,02,27,22,46,3.40
2009,02,27,22,47,3.40
2009,02,27,22,48,3.40
2009,02,27,22,49,3.40
2009,02,27,22,50,3.40
2009,02,27,22,51,3.40
2009,02,27,22,52,3.40
2009,02,27,22,53,3.40
2009,02,27,22,54,3.40
2009,02,27,22,55,3.40
2009,02,27,22,56,3.40
2009,02,27,22,57,3.40
2009,02,27,22,58,3.40
2009,02,27,22,59,3.40
2009,02,27,23,00,3.40
2009,02,27,23,01,3.40
2009,02,27,23,02,3.40
2009,02,27,23,03,3.40
2009,02,27,23,04,3.50
2009,02,27,23,05,3.50
2009,02,27,23,06,3.50
2009,02,27,23,07,3.50
2009,02,27,23,08,3.50
2009,02,27,23,09,3.50
2009,02,27,23,10,3.50
2009,02,27,23,11,3.50
2009,02,27,23,12,3.50
2009,02,27,23,13,3.50
2009,02,27,23,14,3.50
2009,02,27,23,15,3.60
2009,02,27,23,16,3.60
2009,02,27,23,17,3.60
2009,02,27,23,18,3.60
2009,02,27,23,19,3.60
2009,02,27,23,20,3.60
2009,02,27,23,21,3.60
2009,02,27,23,22,3.60
2009,02,27,23,23,3.60
2009,02,27,23,24,3.60
2009,02,27,23,25,3.60
2009,02,27,23,26,3.60
2009,02,27,23,27,3.60
2009,02,27,23,28,3.60
2009,02,27,23,29,3.60
2009,02,27,23,30,3.60
2009,02,27,23,31,3.60
2009,02,27,23,32,3.60
2009,02,27,23,33,3.70
2009,02,27,23,34,3.70
2009,02,27,23,35,3.70
2009,02,27,23,36,3.70
2009,02,27,23,37,3.70
2009,02,27,23,38,3.70
2009,02,27,23,39,3.70
2009,02,27,23,40,3.70
2009,02,27,23,41,3.70
2009,02,27,23,42,3.80
2009,02,27,23,43,3.80
2009,02,27,23,44,3.80
2009,02,27,23,45,3.80
2009,02,27,23,46,3.80
2009,02,27,23,47,3.80
2009,02,27,23,48,3.80
2009,02,27,23,49,3.80
2009,02,27,23,50,3.80
2009,02,27,23,51,3.80
2009,02,27,23,52,3.80
2009,02,27,23,53,3.80
2009,02,27,23,54,3.80
2009,02,27,23,55,3.80
2009,02,27,23,56,3.80
2009,02,27,23,57,3.90
2009,02,27,23,58,3.90
2009,02,27,23,59,3.90
